Location: Winnipeg
(49.8830°N, 97.1670°W)
Time: 20:38:39
(UTC-06:00)

Envisat - Pass Details

Date: 08 December 2022
Orbit: 763 x 765 km, 98.2° (Epoch: 28 January)

Event Time Altitude Azimuth Distance (km) Brightness Sun altitude
Rises 05:12:23 0° 11° (NNE) 3,246 6.4 -28.0°
Reaches altitude 10° 05:14:42 10° 9° (N) 2,315 5.5 -27.6°
Enters shadow 05:16:41 24° 4° (N) 1,561 4.5 -27.3°
